Weather in Voskresenskoye

Russia / Ivanovo Oblast     56°37′12″N   41°25′17″E
temp.,
°C
wind,
m/s
gust,
m/s
humid.,
%
clouds,
%
prec.,
mm/h
press.,
hPa
HPBL,
m
2 march, tue
tue200:00+1wsw61395100 0.1 1009549
03:00+1w71494100 0.1 1006681
06:00+1w61298100 0.1 1004703
09:00+1wnw51198100 0.3 1004738
12:00+1wnw5997100 0.4 1003708
15:00+1wnw51093100 0.8 1003849
18:00−1nw41192100 0.3 1004621
21:00−2nw51288100 0.5 1005721
3 march, wed
wed300:00−5nw5138860 0.0 1006554
03:00−7nw5129178 0.0 1008553
06:00−7nw51291100 0.1 1009628
09:00−7nw61289100 0.1 1011660
12:00−3nw597860 0.0 1011901
15:00−2wnw599063 0.1 1010863
18:00−3w5119296 0.1 1009557
21:00−3w5129394 0.2 1009542
4 march, thu
thu400:00−4wsw5119495 0.0 1006419
03:00−3wsw5129398 0.1 1004513
06:00−2sw61296100 0.8 999619
09:000wsw81497100 2.1 997990
12:00+1wsw71289100 0.2 995905
15:000wsw71299100 0.4 995776
18:00−2wnw41079100 1.3 995542
21:00−4nw51091100 1.3 997603
5 march, fri
fri500:00−8nw389461 0.0 1000208
03:00−11nw349559 0.0 1003108
06:00−12wnw34950 0.0 100685
09:00−10wnw35920 0.0 1007261
12:00−6wnw248273 0.0 1009577
15:00−4w237876 0.0 1010739
18:00−8wsw239148 0.0 101021
21:00−9sw119067 0.0 101221
6 march, sat
sat600:00−12ene119077 0.0 100921
03:00−13ne119377 0.0 100921
06:00−14nnw22948 0.0 100822
09:00−11nw129129 0.0 1008132
12:00−7wnw248789 0.0 1008488
15:00−6nw358894 0.4 1009604
18:00−10nw369199 0.3 1009134
21:00−13nw239678 0.3 101029